Franklin, NC

5:32 PM EST on February 21, 2017 (GMT -0500)
Franklin

Weather History for K1A5 - October, 2011

Change the Weather History Date:

Tuesday, October 11, 2011

  Actual Average (KTOC) Record (KTOC)
Temperature  
Mean Temperature 56 °F -  
Max Temperature 59 °F 74 °F 84 °F (2014)
Min Temperature 53 °F 50 °F 49 °F (2016)
Degree Days  
Heating Degree Days 9    
Growing Degree Days 6 (Base 50)    
Moisture  
Dew Point 54 °F    
Average Humidity 90    
Maximum Humidity 94    
Minimum Humidity 82    
Precipitation  
Precipitation 0.44 in - - ()
Sea Level Pressure  
Sea Level Pressure 30.05 in    
Wind  
Wind Speed 0 mph (ENE)    
Max Wind Speed 5 mph    
Max Gust Speed -    
Visibility 8 miles    
Events Rain    
Averages and records for this station are not official NWS values.
T = Trace of Precipitation, MM = Missing Value Source: NWS Daily Summary

Daily Weather History Graph

Daily Weather History Graph

Search for Another Location

Airport or City:

Trip Planner

Search our weather history database for the weather conditions in past years. The results will help you decide how hot, cold, wet, or windy it might be!

Date:

Astronomy

Oct. 11, 2011 Rise Set
Actual Time 7:36 AM EDT 7:04 PM EDT
Civil Twilight 7:10 AM EDT 7:29 PM EDT
Nautical Twilight 6:41 AM EDT 7:58 PM EDT
Astronomical Twilight 6:11 AM EDT 8:28 PM EDT
Moon 6:37 PM EDT (10/11) 7:11 AM EDT (10/11)
Length of Visible Light 12h 18m
Length of Day
11h 27m
Full, 100% of the Moon is Illuminated
Oct 11
Full
Oct 11
Full
Oct 19
Last Quarter
Oct 26
New
Nov 2
First Quarter

Hourly Weather History & Observations

Time (EDT) Temp. Dew Point Humidity Pressure Visibility Wind Dir Wind Speed Gust Speed Precip Events Conditions
12:15 AM 53.6 °F 51.8 °F 94% 30.11 in 10.0 mi Calm Calm - N/A   Unknown
12:35 AM 53.6 °F 51.8 °F 94% 30.10 in 7.0 mi Calm Calm - N/A Rain Rain
12:55 AM 53.6 °F 51.8 °F 94% 30.10 in 10.0 mi Calm Calm - 0.01 in Rain Light Rain
1:15 AM 55.4 °F 51.8 °F 88% 30.09 in 10.0 mi Calm Calm - N/A   Unknown
1:35 AM 55.4 °F 51.8 °F 88% 30.09 in 10.0 mi Calm Calm - N/A   Unknown
1:55 AM 55.4 °F 53.6 °F 94% 30.09 in 7.0 mi Calm Calm - 0.01 in Rain Rain
2:15 AM 55.4 °F 53.6 °F 94% 30.09 in 10.0 mi Calm Calm - N/A Rain Light Rain
2:35 AM 55.4 °F 53.6 °F 94% 30.08 in 10.0 mi Calm Calm - N/A   Unknown
2:55 AM 55.4 °F 53.6 °F 94% 30.08 in 7.0 mi Calm Calm - N/A   Unknown
3:15 AM 55.4 °F 53.6 °F 94% 30.07 in 7.0 mi ENE 3.5 mph - N/A   Drizzle
3:35 AM 55.4 °F 53.6 °F 94% 30.06 in 7.0 mi Calm Calm - 0.01 in Rain Rain
3:55 AM 55.4 °F 53.6 °F 94% 30.06 in 10.0 mi Calm Calm - 0.01 in   Drizzle
4:15 AM 55.4 °F 53.6 °F 94% 30.06 in 7.0 mi Calm Calm - N/A Rain Light Rain
4:35 AM 55.4 °F 53.6 °F 94% 30.07 in 7.0 mi Calm Calm - 0.01 in Rain Light Rain
4:55 AM 55.4 °F 53.6 °F 94% 30.06 in 7.0 mi Calm Calm - 0.01 in   Unknown
5:15 AM 55.4 °F 53.6 °F 94% 30.06 in 7.0 mi Calm Calm - N/A Rain Light Rain
5:35 AM 55.4 °F 53.6 °F 94% 30.06 in 10.0 mi Calm Calm - N/A   Unknown
5:55 AM 55.4 °F 53.6 °F 94% 30.06 in 7.0 mi Calm Calm - N/A   Heavy Drizzle
6:15 AM 55.4 °F 53.6 °F 94% 30.06 in 7.0 mi ENE 4.6 mph - 0.02 in Rain Rain
6:35 AM 55.4 °F 53.6 °F 94% 30.06 in 10.0 mi Calm Calm - 0.04 in Rain Light Rain
6:55 AM 55.4 °F 53.6 °F 94% 30.06 in 10.0 mi ENE 3.5 mph - 0.05 in   Drizzle
7:15 AM 55.4 °F 53.6 °F 94% 30.06 in 7.0 mi East 4.6 mph - N/A Rain Light Rain
7:35 AM 55.4 °F 53.6 °F 94% 30.07 in 10.0 mi Calm Calm - 0.02 in Rain Rain
7:55 AM 55.4 °F 53.6 °F 94% 30.07 in 7.0 mi Calm Calm - 0.03 in   Drizzle
8:35 AM 55.4 °F 53.6 °F 94% 30.08 in 5.0 mi Calm Calm - N/A   Drizzle
8:55 AM 55.4 °F 53.6 °F 94% 30.08 in 4.0 mi Calm Calm - N/A   Drizzle
9:15 AM 55.4 °F 53.6 °F 94% 30.08 in 10.0 mi Calm Calm - 0.01 in   Drizzle
9:35 AM 55.4 °F 53.6 °F 94% 30.08 in 10.0 mi Calm Calm - 0.01 in   Unknown
9:55 AM 57.2 °F 53.6 °F 88% 30.07 in 10.0 mi Calm Calm - 0.01 in   Unknown
10:15 AM 59.0 °F 53.6 °F 82% 30.07 in 10.0 mi East 3.5 mph - N/A   Unknown
10:55 AM 59.0 °F 53.6 °F 82% 30.07 in 5.0 mi Calm Calm - N/A Rain Rain
11:15 AM 59.0 °F 53.6 °F 82% 30.07 in 7.0 mi Calm Calm - N/A   Light Drizzle
11:35 AM 59.0 °F 53.6 °F 82% 30.06 in 7.0 mi Calm Calm - 0.01 in Rain Light Rain
11:55 AM 59.0 °F 53.6 °F 82% 30.06 in 5.0 mi Calm Calm - 0.03 in Rain Light Rain
12:15 PM 59.0 °F 53.6 °F 82% 30.06 in 5.0 mi Calm Calm - 0.02 in Rain Rain
12:35 PM 59.0 °F 53.6 °F 82% 30.06 in 7.0 mi Calm Calm - 0.03 in Rain Rain
12:55 PM 59.0 °F 53.6 °F 82% 30.05 in 3.0 mi Calm Calm - 0.06 in Rain Light Rain
1:15 PM 59.0 °F 53.6 °F 82% 30.04 in 2.5 mi Calm Calm - 0.02 in Rain Rain
1:35 PM 59.0 °F 53.6 °F 82% 30.04 in 3.0 mi Calm Calm - 0.04 in Rain Light Rain
1:55 PM 59.0 °F 53.6 °F 82% 30.03 in 3.0 mi Calm Calm - 0.06 in Rain Rain
2:15 PM 59.0 °F 53.6 °F 82% 30.02 in 4.0 mi Calm Calm - 0.03 in Rain Rain
2:35 PM 59.0 °F 55.4 °F 88% 30.01 in 5.0 mi Calm Calm - 0.05 in Rain Light Rain
2:55 PM 59.0 °F 55.4 °F 88% 30.01 in 10.0 mi East 3.5 mph - 0.06 in Rain Rain
3:15 PM 59.0 °F 55.4 °F 88% 30.00 in 10.0 mi East 4.6 mph - N/A Rain Light Rain
3:35 PM 59.0 °F 55.4 °F 88% 30.00 in 10.0 mi ENE 3.5 mph - 0.01 in Rain Rain
4:15 PM 59.0 °F 53.6 °F 82% 29.98 in 5.0 mi Calm Calm - N/A Rain Rain
4:35 PM 59.0 °F 53.6 °F 82% 29.98 in 7.0 mi Calm Calm - 0.01 in Rain Rain
4:55 PM 59.0 °F 55.4 °F 88% 29.97 in 7.0 mi ENE 3.5 mph - 0.02 in Rain Light Rain
5:15 PM 59.0 °F 55.4 °F 88% 29.97 in 7.0 mi Calm Calm - 0.01 in Rain Rain
5:55 PM 59.0 °F 55.4 °F 88% 29.97 in 10.0 mi Calm Calm - 0.03 in Rain Light Rain
6:15 PM 59.0 °F 55.4 °F 88% 29.97 in 10.0 mi Calm Calm - 0.01 in Rain Light Rain
6:55 PM 57.2 °F 55.4 °F 94% 29.97 in 10.0 mi Calm Calm - 0.02 in Rain Light Rain
7:35 PM 57.2 °F 53.6 °F 88% 29.97 in 7.0 mi Calm Calm - 0.01 in Rain Rain
7:55 PM 57.2 °F 53.6 °F 88% 29.97 in 7.0 mi Calm Calm - 0.02 in Rain Rain
8:15 PM 55.4 °F 53.6 °F 94% 29.96 in 7.0 mi Calm Calm - N/A Rain Rain
8:35 PM 55.4 °F 53.6 °F 94% 29.97 in 7.0 mi ENE 3.5 mph - N/A Rain Rain
8:55 PM 55.4 °F 53.6 °F 94% 29.97 in 7.0 mi ENE 3.5 mph - 0.01 in Rain Rain
9:15 PM 55.4 °F 53.6 °F 94% 29.98 in 10.0 mi ENE 3.5 mph - N/A   Drizzle
9:35 PM 55.4 °F 53.6 °F 94% 29.98 in 10.0 mi Calm Calm - 0.01 in Rain Rain
9:55 PM 55.4 °F 53.6 °F 94% 29.98 in 10.0 mi Calm Calm - 0.01 in Rain Light Rain
10:15 PM 55.4 °F 53.6 °F 94% 29.99 in 10.0 mi Calm Calm - 0.01 in Rain Light Rain
10:35 PM 55.4 °F 53.6 °F 94% 29.99 in 10.0 mi Calm Calm - 0.01 in Rain Light Rain
10:55 PM 55.4 °F 53.6 °F 94% 29.99 in 10.0 mi Calm Calm - 0.01 in   Unknown
11:15 PM 55.4 °F 53.6 °F 94% 29.99 in 10.0 mi Calm Calm - 0.01 in   Unknown
11:35 PM 55.4 °F 53.6 °F 94% 29.99 in 10.0 mi Calm Calm - 0.01 in   Unknown
11:55 PM 55.4 °F 53.6 °F 94% 29.98 in 10.0 mi Calm Calm - 0.01 in   Unknown